Date,TemperatureHighF,TemperatureAvgF,TemperatureLowF,DewpointHighF,DewpointAvgF,DewpointLowF,HumidityHigh,HumidityAvg,HumidityLow,PressureMaxIn,PressureMinIn,WindSpeedMaxMPH,WindSpeedAvgMPH,GustSpeedMaxMPH,PrecipitationSumIn
2014-2-1,26.0,21.5,17.0,24.0,18.6,-99.9,100,91,88,30.16,29.91,6,2,0,0.00
2014-2-2,18.0,7.4,-4.0,15.0,3.5,-8.0,93,84,77,30.39,30.16,7,4,0,0.00
2014-2-3,18.0,2.1,-12.0,7.0,-3.2,-16.0,88,78,56,30.46,30.38,2,0,0,0.00
2014-2-4,19.0,12.6,3.0,17.0,8.0,-1.0,92,82,69,30.46,30.14,5,1,0,0.00
2014-2-5,19.0,15.9,2.0,17.0,12.8,-3.0,93,88,78,30.53,30.09,12,7,0,0.00
2014-2-6,5.0,-1.3,-7.0,-2.0,-6.5,-11.0,84,78,69,30.58,30.49,12,7,0,0.00
2014-2-7,12.0,3.1,-7.0,3.0,-3.1,-12.0,85,75,65,30.51,30.38,8,2,0,0.00
2014-2-8,18.0,13.3,8.0,15.0,9.8,2.0,92,85,75,30.38,30.17,0,0,0,0.00
2014-2-9,16.0,9.3,-2.0,14.0,5.4,-7.0,92,84,76,30.40,30.16,11,4,0,0.00
2014-2-10,5.0,-2.6,-11.0,-3.0,-7.9,-14.0,85,78,68,30.57,30.40,7,4,0,0.00
2014-2-11,15.0,-3.6,-16.0,1.0,-9.6,-20.0,85,76,51,30.62,30.43,3,0,0,0.00
2014-2-12,25.0,9.4,-7.0,14.0,3.8,-10.0,87,78,54,30.43,30.05,3,0,0,0.00
2014-2-13,35.0,20.8,8.0,30.0,14.8,4.0,88,78,61,30.06,29.60,16,5,0,0.00
2014-2-14,17.0,12.2,6.0,11.0,7.3,2.0,85,81,74,30.06,29.72,10,6,0,0.00
2014-2-15,19.0,12.7,0.0,15.0,6.5,-99.9,91,79,64,30.16,29.99,8,2,0,0.00
2014-2-16,27.0,19.1,15.0,18.0,14.7,12.0,91,83,64,30.29,29.99,9,3,0,0.00
2014-2-17,33.0,24.8,19.0,31.0,22.1,15.0,94,89,82,30.25,29.73,15,5,0,0.00
2014-2-18,49.0,35.4,18.0,32.0,27.3,16.0,94,74,49,29.96,29.67,9,4,0,0.00
2014-2-19,42.0,34.6,29.0,32.0,29.2,26.0,90,81,67,29.98,29.69,10,4,0,0.00
2014-2-20,46.0,36.0,33.0,46.0,34.3,30.0,99,94,84,29.88,29.19,21,7,0,0.00
2014-2-21,36.0,30.6,25.0,31.0,23.8,18.0,90,76,60,29.87,29.42,21,13,0,0.00
2014-2-22,31.0,26.9,20.0,22.0,18.0,-99.9,88,71,57,30.12,29.88,11,3,0,0.00
2014-2-23,25.0,19.7,17.0,15.0,11.7,9.0,78,71,62,30.32,30.11,11,7,0,0.00
2014-2-24,23.0,18.0,13.0,13.0,10.2,8.0,82,71,58,30.38,30.28,10,6,0,0.00
2014-2-25,18.0,12.9,7.0,13.0,6.7,-1.0,89,77,59,30.33,30.26,14,8,0,0.00
2014-2-26,20.0,8.0,-1.0,12.0,-0.1,-6.0,79,69,57,30.36,29.78,14,9,0,0.00
2014-2-27,20.0,7.2,2.0,11.0,-3.8,-8.0,73,60,50,30.24,29.78,17,6,0,0.00
2014-2-28,34.0,18.2,2.0,24.0,9.3,-6.0,80,68,51,30.24,29.98,5,2,0,0.00